TIME,DELAY(SENSOR),PRES,OXYGEN,RAWTEMP,T(OPTODE),TCPHASE,FLUOR,BETA(BETA700),BETA(BETA412),BETA(BETA440),CDOM,C(CSC),ED(ED411.90),ED(ED443.80),ED(ED489.40),ED(ED554.70),LU(LU412.20),LU(LU443.80),LU(LU489.40),LU(LU555.00),COMP,TILTX,TILTY,CHECK
1359931415,5804,883.3800048828125000,171.7599029541015600,457.9509887695312500,8.8284378051757810,39.0545883178710940,60,128,98,79,80,12003,2146962084,2147512676,2147290084,2147504630,2147090852,2146924864,2147711972,2147119232,1994,-1,9,19740
1359935011,5806,992.1799926757812000,213.0431976318359400,523.8659057617188000,6.7871217727661130,37.5398216247558600,60,127,98,78,81,12001,2146961764,2147514669,2147296018,2147517229,2147087862,2146922185,2147725540,2147121645,458,-1,9,30621
1359938611,5806,1010.7399902343750000,220.2689056396484400,529.8377075195312000,6.6007308959960940,37.2345581054687500,62,126,97,78,81,11991,2146961453,2147514313,2147295076,2147519542,2147089170,2146918372,2147721837,2147119360,3017,-1,9,56020
1359942211,5804,1009.9199829101562000,223.6165008544922000,530.4426269531250000,6.5818371772766110,37.0590400695800800,62,130,96,79,80,11996,2146961819,2147517549,2147301248,2147519305,2147090185,2146925321,2147725659,2147119213,3236,-1,9,30245
1359945811,5807,1012.2199707031250000,224.4671020507812500,533.3892822265625000,6.4897518157958980,37.0654792785644500,63,128,97,78,80,11996,2146964736,2147513764,2147300342,2147519186,2147089581,2146930358,2147724004,2147121910,3139,-1,9,8696
1359949411,5806,1017.1199951171875000,228.4100036621093800,534.6746215820312000,6.4495701789855960,36.8742790222168000,63,126,99,78,81,11993,2146961389,2147517193,2147297700,2147518509,2147089828,2146928813,2147723666,2147120054,3520,-1,9,61460
1359953011,5806,1012.9099731445312000,228.3016052246093800,535.2888793945312000,6.4303569793701170,36.8907394409179700,63,126,98,78,80,11995,2146962459,2147511680,2147298486,2147520000,2147089837,2146924516,2147726080,2147121179,384,-1,8,1721
1359956611,5806,1017.1199951171875000,229.8748016357422000,536.4666748046875000,6.3935170173645020,36.8274688720703100,62,126,98,79,81,11988,2146962550,2147515766,2147301467,2147519058,2147092918,2146922633,2147724507,2147118080,3346,-1,9,11636
1359960211,5807,1015.9899902343750000,230.8343048095703000,536.8748779296875000,6.3807468414306640,36.7837486267089840,62,126,98,77,81,11987,2146962624,2147515492,2147301476,2147524096,2147091977,2146921243,2147726217,2147120054,3537,-1,9,27080
1359963811,5808,1014.4600219726562000,232.4158020019531200,538.5999145507812000,6.3267650604248050,36.7306709289550800,64,127,97,79,81,11973,2146957677,2147516553,2147301120,2147524370,2147089261,2146926299,2147728356,2147120832,3587,0,9,17763
1359967411,5809,1012.5100097656250000,233.2129974365234400,540.9094848632812000,6.2544560432434080,36.7294197082519500,63,125,99,79,81,11984,2146962633,2147512246,2147296539,2147520329,2147091776,2146921764,2147725979,2147120822,67,-1,8,57208
1359971011,5805,1020.5499877929688000,235.9647064208984400,540.4805908203125000,6.2678871154785160,36.5780296325683600,63,125,97,79,80,11984,2146965376,2147511689,2147300480,2147522998,2147090569,2146925065,2147724169,2147122541,3190,-1,9,39248
1359974611,5806,1019.9500122070312000,232.5283050537109400,540.0067138671875000,6.2827258110046390,36.7495994567871100,62,129,98,79,81,11984,2146960228,2147512694,2147298752,2147523584,2147089700,2146928228,2147723419,2147121499,3425,-1,9,20424
1359978211,5807,1018.4799804687500000,233.3184051513672000,538.9528808593750000,6.3157181739807130,36.6887588500976560,62,126,97,79,81,11982,2146957366,2147514486,2147300690,2147522724,2147090048,2146920822,2147726061,2147121956,3250,-1,8,17594
1359981811,5806,1021.1799926757812000,232.8887939453125000,538.4539184570312000,6.3313369750976560,36.7022895812988300,62,126,97,80,80,11984,2146960950,2147513728,2147297636,2147520987,2147090550,2146925924,2147726765,2147121435,413,-1,9,48097
1359985411,5807,1020.2199707031250000,232.0162963867187500,537.9249267578125000,6.3478908538818360,36.7394599914550800,62,124,98,79,82,11984,2146960987,2147514514,2147301312,2147519350,2147089371,2146926646,2147727268,2147121819,309,-1,9,15613
1359989011,5806,1022.7100219726562000,231.1616058349609400,538.1185913085938000,6.3418288230896000,36.7885093688964840,61,128,97,80,80,11976,2146960393,2147515062,2147299428,2147520868,2147091565,2146919981,2147719286,2147119862,2929,-1,9,55317
1359992611,5804,1021.1199951171875000,232.2490997314453000,538.2545776367188000,6.3375740051269530,36.7329292297363300,61,127,97,79,80,11978,2146963867,2147515236,2147300214,2147522925,2147088219,2146925193,2147732370,2147122441,3173,-1,9,38994
1359996211,5807,1021.2600097656250000,228.8303070068359400,539.0700073242188000,6.3120498657226560,36.9303703308105500,62,125,96,80,81,11975,2146962075,2147515547,2147297965,2147518976,2147088228,2146924114,2147724745,2147119670,191,-1,8,6685
1359999811,5810,1021.5300292968750000,230.8397979736328000,540.3839721679688000,6.2709097862243650,36.8462905883789060,61,126,107,79,80,11975,2146960100,2147516288,2147299154,2147519286,2147090048,2146926198,2147721316,2147119753,54,0,9,27364
1360003411,5804,1019.4899902343750000,235.7149963378906200,541.0355834960938000,6.2505049705505370,36.6004600524902340,62,126,98,80,80,11974,2146959625,2147518080,2147300288,2147519570,2147088512,2146920420,2147724781,2147118710,3466,-1,9,24670
1360007011,5808,1018.7700195312500000,235.2841949462890600,541.0628051757812000,6.2496547698974610,36.6241683959960940,62,125,98,77,81,11974,2146961682,2147518052,2147299126,2147521920,2147091410,2146918912,2147723163,2147119798,3380,-1,9,42796
1360010611,5806,1021.1599731445312000,235.6945037841797000,541.0526123046875000,6.2499752044677730,36.6023292541503900,62,126,97,78,81,11974,2146963154,2147518107,2147299337,2147522459,2147091520,2146918793,2147727012,2147123172,3517,-1,9,5082
1360014211,5806,1020.0000000000000000,235.0104980468750000,540.9752197265625000,6.2523980140686035,36.6366615295410160,62,125,98,80,81,11974,2146958884,2147517577,2147300187,2147518875,2147088018,2146924260,2147723392,2147121700,3291,-1,9,15591
1360017811,5805,1021.7700195312500000,234.9467926025390600,540.9061279296875000,6.2545599937438965,36.6387901306152340,62,125,97,79,81,11974,2146961782,2147516626,2147302445,2147523986,2147090276,2146919643,2147727497,2147118125,3154,-1,9,47978
1360021411,5808,1021.3099975585938000,235.3538970947265600,540.9692993164062000,6.2525830268859860,36.6189994812011700,61,125,98,79,81,11965,2146965531,2147517056,2147299126,2147519945,2147088960,2146921700,2147723968,2147121645,107,-1,9,62358
1360025011,5805,1020.7100219726562000,235.6658935546875000,542.4331054687500000,6.2067298889160160,36.6286811828613300,61,131,98,79,81,11965,2146962971,2147518381,2147299556,2147522706,2147089984,2146925485,2147724489,2147121984,3309,-1,9,26600
1360028611,5808,1017.4400024414062000,237.0433044433593800,542.1458740234375000,6.2157268524169920,36.5513496398925800,62,126,98,79,81,11962,2146962441,2147515675,2147299538,2147520576,2147091757,2146922770,2147726939,2147120064,641,-1,9,25445
1360032211,5804,1020.8599853515625000,235.6822052001953000,542.5261840820312000,6.2038121223449710,36.6296501159668000,61,127,99,79,80,11958,2146966592,2147515730,2147300086,2147520438,2147088438,2146920667,2147727808,2147122605,3290,-1,9,42518
1360035811,5806,1020.2700195312500000,235.2156066894531200,542.0623779296875000,6.2183442115783690,36.6454086303710940,61,127,97,78,80,11958,2146963218,2147512201,2147300388,2147520201,2147089554,2146915026,2147725979,2147121334,3064,-1,9,64797
1360039411,5807,1018.5800170898438000,236.3211059570312500,542.8171997070312000,6.1946959495544430,36.6011390686035160,61,129,97,79,81,11965,2146961408,2147513600,2147299794,2147520374,2147091968,2146923456,2147726500,2147123940,401,-1,8,44258
1360043011,5809,1017.3200073242188000,236.1925964355468800,543.4127197265625000,6.1760368347167970,36.6185417175293000,61,126,99,82,80,11965,2146963995,2147518235,2147301229,2147520082,2147088347,2146922532,2147727131,2147125595,3594,-1,9,31008
1360046611,5807,1016.5300292968750000,236.5986022949218800,544.5316772460938000,6.1409649848937990,36.6179389953613300,61,127,97,78,79,11959,2146964150,2147517778,2147296173,2147521654,2147085467,2146926436,2147726500,2147121124,1223,-1,9,58605
1360050211,5805,1016.3400268554688000,236.9532928466797000,544.9082031250000000,6.1291642189025880,36.6060600280761700,60,127,98,80,81,11961,2146965165,2147515328,2147301385,2147523958,2147091236,2146920850,2147726491,2147123803,3509,-1,9,21905
1360053811,5804,1018.8099975585938000,238.5726928710937500,544.6829833984375000,6.1362252235412600,36.5181808471679700,61,127,98,79,80,11956,2146961380,2147516489,2147301467,2147520594,2147086637,2146916242,2147725668,2147121490,3227,-1,9,52776
1360057411,5803,1024.1500244140625000,237.4467010498047000,543.2951049804688000,6.1797218322753910,36.5513801574707000,60,126,97,78,81,11955,2146960054,2147517174,2147301613,2147521088,2147088182,2146920393,2147730477,2147122825,3499,-1,9,21466
1360061011,5808,1021.9500122070312000,236.9721984863281200,542.9550170898438000,6.1903781890869140,36.5704498291015600,60,126,98,79,80,11954,2146960694,2147516224,2147301440,2147520457,2147087963,2146920896,2147729024,2147121947,195,-1,8,48408
1360064611,5806,1019.4000244140625000,234.9654998779297000,543.2407226562500000,6.1814270019531250,36.6800689697265600,60,128,98,80,81,11953,2146964461,2147516388,2147299465,2147522898,2147091282,2146920896,2147726555,2147120118,46,-1,9,53556
1360068211,5804,1016.5100097656250000,237.6925964355468800,544.7017211914062000,6.1356368064880370,36.5645408630371100,60,130,98,79,80,11953,2146961280,2147512941,2147301741,2147522898,2147089289,2146918208,2147727497,2147119936,3166,-1,9,28190
1360071811,5807,1020.2600097656250000,238.1968994140625000,544.0861206054688000,6.1549320220947270,36.5267715454101560,60,128,98,78,81,11951,2146963611,2147512960,2147298496,2147520457,2147089078,2146916790,2147726518,2147119936,135,-1,8,51000
1360075411,5804,1016.2999877929688000,237.4414062500000000,544.8533935546875000,6.1308817863464355,36.5798988342285160,59,130,98,80,80,11950,2146964964,2147518747,2147300598,2147521673,2147092946,2146922413,2147728685,2147121106,3505,-1,9,29299
1360075556,5805,11.1999998092651370,238.1177062988281200,544.9243164062500000,6.1286602020263670,36.5462799072265600,61,129,99,79,80,11973,2146966262,2147514130,2147298185,2147521837,2147088941,2146920859,2147725787,2147124836,3339,-1,9,35152
